• In Hungary
  • List of Countries
  • For 7 days
  • Water Temperature
  • Satellite Maps
  • Weather Map
  • News
  • Weather Widgets
  • user-avatar
    Login

    Hourly Weather Sharagol

    Today, 24 September, Monday

    Time Temperature Precipitation Wind Pressure Humidity
    00:00 +2°C° 0 mm 1 mps 600 mmHg 60%
    01:00 +2°C° 0 mm 1 mps 599 mmHg 61%
    02:00 +1°C° 0 mm 1 mps 599 mmHg 62%
    03:00 +1°C° 0 mm 1 mps 599 mmHg 62%
    04:00 0°C° 0 mm 1 mps 599 mmHg 63%
    05:00 0°C° 0 mm 1 mps 599 mmHg 63%
    06:00 0°C° 0 mm 1 mps 599 mmHg 64%
    07:00 +1°C° 0 mm 1 mps 599 mmHg 62%
    08:00 +3°C° 0 mm 1 mps 600 mmHg 67%
    09:00 +4°C° 0 mm 1 mps 600 mmHg 72%
    10:00 +6°C° 0 mm 1 mps 600 mmHg 76%
    11:00 +6°C° 0 mm 1 mps 600 mmHg 76%
    12:00 +7°C° 0 mm 1 mps 601 mmHg 76%
    13:00 +7°C° 0 mm 1 mps 601 mmHg 77%
    14:00 +7°C° 0 mm 1 mps 600 mmHg 77%
    15:00 +7°C° 0 mm 1 mps 600 mmHg 77%
    16:00 +7°C° 0 mm 1 mps 600 mmHg 78%
    17:00 +5°C° 0 mm 1 mps 599 mmHg 78%
    18:00 +3°C° 0 mm 1 mps 599 mmHg 78%
    19:00 +1°C° 0 mm 1 mps 598 mmHg 79%
    20:00 +1°C° 0 mm 1 mps 598 mmHg 78%
    21:00 0°C° 0 mm 1 mps 598 mmHg 76%
    22:00 0°C° 0 mm 1 mps 598 mmHg 75%
    23:00 0°C° 0 mm 1 mps 598 mmHg 75%

    Tomorrow, 25 September, Tuesday

    Time Temperature Precipitation Wind Pressure Humidity
    00:00 0°C° 0 mm 1 mps 599 mmHg 74%
    01:00 0°C° 0 mm 1 mps 599 mmHg 74%
    02:00 0°C° 0 mm 1 mps 598 mmHg 73%
    03:00 0°C° 0 mm 1 mps 598 mmHg 73%
    04:00 0°C° 0 mm 1 mps 598 mmHg 73%
    05:00 0°C° 0 mm 1 mps 598 mmHg 73%
    06:00 +1°C° 0 mm 1 mps 599 mmHg 73%
    07:00 +1°C° 0 mm 1 mps 599 mmHg 73%
    08:00 +2°C° 0 mm 2 mps 599 mmHg 75%
    09:00 +4°C° 0 mm 2 mps 599 mmHg 77%
    10:00 +5°C° 0 mm 2 mps 600 mmHg 79%
    11:00 +6°C° 0 mm 2 mps 599 mmHg 78%
    12:00 +6°C° 0 mm 2 mps 599 mmHg 78%
    13:00 +7°C° 0 mm 2 mps 599 mmHg 77%
    14:00 +7°C° 0 mm 2 mps 599 mmHg 77%
    15:00 +8°C° 0 mm 1 mps 599 mmHg 77%
    16:00 +8°C° 0 mm 1 mps 599 mmHg 78%
    17:00 +6°C° 0 mm 1 mps 599 mmHg 78%
    18:00 +5°C° 0 mm 1 mps 598 mmHg 79%
    19:00 +3°C° 0 mm 0 mps 598 mmHg 79%
    20:00 +4°C° 0 mm 1 mps 598 mmHg 81%
    21:00 +3°C° 0 mm 1 mps 598 mmHg 83%
    22:00 +3°C° 0 mm 1 mps 598 mmHg 84%
    23:00 +3°C° 0.3 mm 1 mps 599 mmHg 86%

    Day after tomorrow, 26 September, Wednesday

    Time Temperature Precipitation Wind Pressure Humidity
    00:00 +3°C° 0.3 mm 1 mps 599 mmHg 88%
    01:00 +3°C° 0.3 mm 1 mps 599 mmHg 90%
    02:00 +3°C° 0.9 mm 1 mps 599 mmHg 92%
    03:00 +2°C° 0.9 mm 2 mps 599 mmHg 94%
    04:00 +2°C° 0.9 mm 2 mps 599 mmHg 96%
    05:00 +2°C° 2.1 mm 2 mps 599 mmHg 96%
    06:00 +2°C° 2.1 mm 2 mps 599 mmHg 96%
    07:00 0°C° 2.1 mm 3 mps 599 mmHg 97%
    08:00 +1°C° 1.8 mm 2 mps 599 mmHg 97%
    09:00 +1°C° 1.8 mm 2 mps 599 mmHg 97%
    10:00 +1°C° 1.8 mm 2 mps 599 mmHg 97%
    11:00 +1°C° 0.9 mm 2 mps 599 mmHg 96%
    12:00 +1°C° 0.9 mm 2 mps 599 mmHg 96%
    13:00 +1°C° 0.9 mm 2 mps 599 mmHg 96%
    14:00 +1°C° 0.3 mm 2 mps 599 mmHg 95%
    15:00 +2°C° 0.3 mm 2 mps 599 mmHg 94%
    16:00 +2°C° 0.3 mm 2 mps 599 mmHg 93%
    17:00 -1°C° 0 mm 2 mps 598 mmHg 92%
    18:00 -2°C° 0 mm 2 mps 598 mmHg 91%
    19:00 -3°C° 0 mm 2 mps 598 mmHg 90%
    20:00 -4°C° 0 mm 2 mps 598 mmHg 89%
    21:00 -3°C° 0 mm 1 mps 597 mmHg 87%
    22:00 -3°C° 0 mm 1 mps 597 mmHg 86%
    23:00 -5°C° 0.5 mm 2 mps 597 mmHg 88%

    27 September, Thursday

    Time Temperature Precipitation Wind Pressure Humidity
    00:00 -5°C° 0.5 mm 2 mps 598 mmHg 90%
    01:00 -5°C° 0.5 mm 2 mps 598 mmHg 92%
    02:00 -5°C° 0.6 mm 2 mps 599 mmHg 93%
    03:00 -5°C° 0.6 mm 2 mps 599 mmHg 94%
    04:00 -5°C° 0.6 mm 2 mps 599 mmHg 95%
    05:00 -6°C° 0.1 mm 2 mps 599 mmHg 95%
    06:00 -7°C° 0.1 mm 2 mps 599 mmHg 94%
    07:00 -7°C° 0.1 mm 2 mps 599 mmHg 93%
    08:00 -6°C° 0 mm 2 mps 600 mmHg 87%
    09:00 -5°C° 0 mm 2 mps 600 mmHg 82%
    10:00 -3°C° 0 mm 2 mps 601 mmHg 77%
    11:00 -3°C° 0.1 mm 2 mps 601 mmHg 77%
    12:00 -2°C° 0.1 mm 2 mps 600 mmHg 78%
    13:00 -2°C° 0.1 mm 2 mps 600 mmHg 78%
    14:00 -2°C° 0.2 mm 2 mps 600 mmHg 78%
    15:00 -2°C° 0.2 mm 2 mps 600 mmHg 78%
    16:00 -2°C° 0.2 mm 2 mps 600 mmHg 78%
    17:00 -1°C° 0.2 mm 1 mps 600 mmHg 82%
    18:00 -2°C° 0.2 mm 1 mps 600 mmHg 86%
    19:00 -4°C° 0.2 mm 1 mps 600 mmHg 90%
    20:00 -4°C° 0.2 mm 1 mps 600 mmHg 91%
    21:00 -4°C° 0.2 mm 1 mps 600 mmHg 92%
    22:00 -6°C° 0.2 mm 1 mps 600 mmHg 93%
    23:00 -6°C° 0.1 mm 1 mps 600 mmHg 93%

    28 September, Friday

    Time Temperature Precipitation Wind Pressure Humidity
    00:00 -6°C° 0.1 mm 1 mps 600 mmHg 93%
    01:00 -6°C° 0.1 mm 1 mps 600 mmHg 93%
    02:00 -7°C° 0 mm 1 mps 599 mmHg 93%
    03:00 -7°C° 0 mm 1 mps 599 mmHg 93%
    04:00 -8°C° 0 mm 1 mps 599 mmHg 94%
    05:00 -7°C° 0 mm 1 mps 599 mmHg 93%
    06:00 -7°C° 0 mm 1 mps 600 mmHg 93%
    07:00 -7°C° 0 mm 2 mps 600 mmHg 92%
    08:00 -6°C° 0.1 mm 2 mps 601 mmHg 89%
    09:00 -5°C° 0.1 mm 2 mps 601 mmHg 86%
    10:00 -4°C° 0.1 mm 2 mps 602 mmHg 83%
    11:00 -3°C° 0.3 mm 2 mps 602 mmHg 83%
    12:00 -3°C° 0.3 mm 2 mps 602 mmHg 83%
    13:00 -2°C° 0.3 mm 2 mps 602 mmHg 83%
    14:00 -2°C° 0.1 mm 2 mps 602 mmHg 83%
    15:00 -2°C° 0.1 mm 2 mps 602 mmHg 83%
    16:00 -2°C° 0.1 mm 2 mps 602 mmHg 84%
    17:00 -3°C° 0.1 mm 2 mps 602 mmHg 87%
    18:00 -5°C° 0.1 mm 2 mps 602 mmHg 90%
    19:00 -4°C° 0.1 mm 1 mps 602 mmHg 93%
    20:00 -4°C° 0 mm 1 mps 602 mmHg 93%
    21:00 -6°C° 0 mm 1 mps 602 mmHg 94%
    22:00 -7°C° 0 mm 1 mps 602 mmHg 95%
    23:00 -7°C° 0 mm 1 mps 602 mmHg 94%

    29 September, Saturday

    Time Temperature Precipitation Wind Pressure Humidity
    00:00 -7°C° 0 mm 1 mps 602 mmHg 92%
    01:00 -7°C° 0 mm 1 mps 602 mmHg 91%
    02:00 -7°C° 0 mm 1 mps 602 mmHg 89%
    03:00 -7°C° 0 mm 1 mps 602 mmHg 88%
    04:00 -6°C° 0 mm 1 mps 602 mmHg 86%
    05:00 -6°C° 0 mm 1 mps 602 mmHg 84%
    06:00 -6°C° 0 mm 1 mps 602 mmHg 81%
    07:00 -6°C° 0 mm 1 mps 603 mmHg 79%
    08:00 -4°C° 0 mm 2 mps 603 mmHg 79%
    09:00 -2°C° 0 mm 2 mps 604 mmHg 78%
    10:00 +1°C° 0 mm 2 mps 604 mmHg 77%
    11:00 +2°C° 0 mm 2 mps 604 mmHg 80%
    12:00 +2°C° 0 mm 2 mps 604 mmHg 83%
    13:00 +3°C° 0 mm 2 mps 603 mmHg 86%
    14:00 +3°C° 0 mm 2 mps 603 mmHg 83%
    15:00 +3°C° 0 mm 2 mps 603 mmHg 79%
    16:00 +3°C° 0 mm 2 mps 603 mmHg 75%
    17:00 +1°C° 0 mm 2 mps 603 mmHg 73%
    18:00 -2°C° 0 mm 2 mps 602 mmHg 72%
    19:00 -4°C° 0 mm 2 mps 602 mmHg 70%
    20:00 -4°C° 0 mm 2 mps 602 mmHg 69%
    21:00 -4°C° 0 mm 2 mps 602 mmHg 68%
    22:00 -5°C° 0 mm 3 mps 603 mmHg 67%
    23:00 -4°C° 0 mm 2 mps 603 mmHg 68%
    Show more